TimeEDT,TemperatureF,Dew PointF,Humidity,Sea Level PressureIn,VisibilityMPH,Wind Direction,Wind SpeedMPH,Gust SpeedMPH,PrecipitationIn,Events,Conditions,WindDirDegrees,DateUTC
12:52 AM,68.0,53.1,59,29.93,10.0,West,8.1,-,N/A,,Clear,270,2013-05-16 04:52:00
1:52 AM,66.9,53.1,61,29.92,10.0,West,9.2,-,N/A,,Clear,260,2013-05-16 05:52:00
2:52 AM,64.9,52.0,63,29.91,10.0,West,8.1,-,N/A,,Clear,260,2013-05-16 06:52:00
3:52 AM,66.0,48.9,54,29.91,10.0,West,10.4,-,N/A,,Clear,280,2013-05-16 07:52:00
4:52 AM,64.0,48.0,56,29.92,10.0,WNW,5.8,-,N/A,,Clear,290,2013-05-16 08:52:00
5:52 AM,62.1,48.0,60,29.92,10.0,West,4.6,-,N/A,,Clear,260,2013-05-16 09:52:00
6:52 AM,62.1,48.0,60,29.94,10.0,WSW,5.8,-,N/A,,Clear,250,2013-05-16 10:52:00
7:52 AM,64.9,48.9,56,29.96,10.0,West,9.2,-,N/A,,Clear,260,2013-05-16 11:52:00
8:52 AM,69.1,50.0,51,29.97,10.0,WNW,13.8,-,N/A,,Clear,290,2013-05-16 12:52:00
9:52 AM,71.1,51.1,49,29.96,10.0,West,12.7,21.9,N/A,,Clear,270,2013-05-16 13:52:00
10:52 AM,71.1,51.1,49,29.98,10.0,West,9.2,-,N/A,,Clear,270,2013-05-16 14:52:00
11:52 AM,71.1,52.0,51,29.98,10.0,West,12.7,20.7,N/A,,Partly Cloudy,260,2013-05-16 15:52:00
12:52 PM,71.1,51.1,49,29.99,10.0,West,13.8,26.5,N/A,,Scattered Clouds,270,2013-05-16 16:52:00
1:52 PM,73.9,52.0,46,29.98,10.0,WNW,11.5,-,N/A,,Partly Cloudy,300,2013-05-16 17:52:00
2:52 PM,75.9,53.1,45,29.96,10.0,SW,11.5,16.1,N/A,,Clear,230,2013-05-16 18:52:00
3:52 PM,77.0,54.0,45,29.93,10.0,WSW,10.4,17.3,N/A,,Scattered Clouds,240,2013-05-16 19:52:00
4:52 PM,75.0,53.1,46,29.94,10.0,West,8.1,-,N/A,,Overcast,260,2013-05-16 20:52:00
5:52 PM,75.0,48.9,40,29.94,10.0,West,9.2,18.4,N/A,,Partly Cloudy,280,2013-05-16 21:52:00
6:52 PM,73.0,53.1,49,29.97,10.0,WNW,8.1,-,N/A,,Scattered Clouds,290,2013-05-16 22:52:00
7:52 PM,68.0,53.1,59,30.01,10.0,North,11.5,20.7,N/A,,Overcast,350,2013-05-16 23:52:00
8:52 PM,64.0,53.1,67,30.00,10.0,Calm,Calm,-,N/A,,Clear,0,2013-05-17 00:52:00
9:52 PM,62.1,53.1,72,30.01,10.0,West,4.6,-,N/A,,Clear,260,2013-05-17 01:52:00
10:52 PM,62.1,53.1,72,30.02,10.0,WSW,5.8,-,N/A,,Overcast,240,2013-05-17 02:52:00
11:52 PM,62.1,53.1,72,30.01,10.0,West,4.6,-,N/A,,Mostly Cloudy,260,2013-05-17 03:52:00